Location: *
(1.3500°S, 147.5000°W)
Time: 13:48:59
(UTC+00:00)

Centaur AC-69 - Pass Details

Date: 07 April 2020
Orbit: 348 x 30444 km, 17.6° (Epoch: 05 June)

Event Time Altitude Azimuth Distance (km) Brightness Sun altitude
Rises 04:29:19 0° 224° (SW) 2,308 6.6 -9.4°
Reaches altitude 10° 04:32:39 10° 169° (S) 1,321 4.6 -10.2°
Maximum altitude 04:33:04 10° 159° (SSE) 1,336 4.5 -10.3°
Drops below altitude 10° 04:33:30 10° 148° (SSE) 1,394 4.5 -10.4°
Enters shadow 04:34:00 - 138° (SE) 1,505 4.6 -10.6°
